天绘卫星 5D星

导读

TIANHUI 5D(天绘五号D星)是中国于2024年7月发射的测绘遥感卫星,作为天绘五号系列卫星成员,它搭载先进遥感载荷,具备高分辨率对地观测能力,可获取精准地球表面影像信息。该卫星主要服务于地理信息测绘、国土资源普查、地质调查与环境监测等领域,能为国民经济建设、科学研究提供可靠基础数据支撑,进一步完善了中国天绘卫星体系,提升了我国自主遥感测绘服务能力。

基本信息
目录编号:
60212
目录名称:
TIANHUI 5D
国际标识:
2024-126B
轨道中心:
EARTH
卫星名称:
天绘卫星 5D星
卫星全名:
天绘卫星 5D星
卫星状态:
在轨 (已飞行713 天)
发射日期:
2024-07-04 UTC
国别 :
中国 (CN)
星等 :
--
轨道信息
数据来源 国际轨道数据 AOE轨道数据
星历时间 2026-06-15T21:15:28+0800
1天前
查看轨道信息
2026-06-17T02:00:00+0800
17小时前
查看轨道信息
半长轴 6983.653km 6983.644km
偏心率 0.0001773 0.0001883
轨道倾角 97.821° 97.827°
近地点辐角 91.136° 87.094°
升交点赤经 174.130° 175.320°
平近点角 269.006° 202.570°
近地点 604.277km 604.191km
远地点 606.755km 606.823km
周期 96.802分钟 96.802分钟
每日圈数 14.875749 14.875778
详细信息
卫星平台:
CAST2000卫星平台
平衡模式:
三轴稳定
使用方式:
暂无
2D轨道图
3D轨道图
轨道高度分析图
轨道倾角分析图
轨道综合分析图
查看轨道综合分析图